Location: *
(50.9167°S, 179.4000°W)
Time: 20:36:15
(UTC+00:00)

Resurs 1-4 Rocket - Pass Details

Date: 03 March 2024
Orbit: 799 x 812 km, 98.7° (Epoch: 16 April)

Event Time Altitude Azimuth Distance (km) Brightness Sun altitude
Exits shadow 13:07:47 43° 219° (SW) 1,142 3.0 -31.2°
Drops below altitude 10° 13:11:29 10° 200° (SSW) 2,430 5.2 -31.0°
Sets 13:13:52 0° 197° (SSW) 3,367 6.1 -30.9°
